Location: Fort Worth, Tx
(32.7431°N, 97.3695°W)
Time: 21:07:22
(UTC-04:00)

Vanguard 1 Rocket - Pass Details

Date: 17 September 2024
Orbit: 650 x 4218 km, 34.3° (Epoch: 11 October)

Event Time Altitude Azimuth Distance (km) Brightness Sun altitude
Exits shadow 06:13:48 36° 252° (WSW) 3,411 9.7 -25.7°
Maximum altitude 06:22:06 88° 165° (SSE) 3,102 9.9 -24.0°
Drops below altitude 10° 06:47:05 10° 80° (E) 7,384 13.3 -19.0°
Sets 06:53:08 0° 80° (E) 8,464 14.1 -17.8°
